Temp
12 10 10 10 10 12 11 11 12 12 12 13 12 11 12 7 7 5 4 5 6 7 6 7 8 8 9 9 10 9 9 9 9 9 9 9 9 8 9 9 8 8 8 8
9 9 11 10 10 12 10 11 11 10 11 12 11 10 10 6 5 5 5 5 5 5 6 6 7 8 9 9 9 9 10 9 10 10 10 10 9 9 9 8 8 8 8 8
9 12 10 11 9 10 9 10 10 12 11 10 10 10 8 4 3 3 4 4 4 5 6 7 8 8 8 9 9 9 10 10 10 10 10 10 10 9 8 8 8 8 7 7
9 10 10 10 10 9 9 8 10 10 10 10 10 10 9 5 3 2 2 3 4 5 6 6 7 7 8 8 9 9 9 9 9 9 9 9 9 9 8 7 6 6 5 5
11 8 9 10 10 9 10 7 8 9 9 9 9 9 8 5 5 2 1 2 3 4 5 5 6 6 7 7 7 7 8 8 8 8 8 8 7 6 5 5 4 4 4 4
9 10 9 10 9 9 7 8 7 5 7 7 9 10 9 7 7 2 2 3 4 4 4 5 5 6 6 6 6 7 7 7 7 7 7 7 7 6 6 5 5 4 3 3
9 9 10 10 8 9 9 9 8 8 7 8 6 7 9 9 6 5 3 2 3 4 4 5 5 5 6 6 6 6 6 6 6 6 6 6 6 5 5 5 4 3 2 2
8 9 8 8 9 9 7 9 8 8 7 8 5 7 10 4 3 4 4 4 4 3 4 4 5 5 5 5 5 5 5 5 5 5 5 4 4 4 3 3 2 2 2 1
7 9 8 9 8 9 9 9 8 5 -2 4 8 8 8 3 2 1 2 3 3 4 4 4 4 4 5 4 4 4 4 4 4 3 3 3 2 2 2 1 1 1 0 0
9 10 8 8 9 8 9 8 9 6 7 6 7 8 10 5 4 0 -0 1 3 4 4 4 4 4 4 4 4 4 3 3 2 2 1 1 1 1 0 0 -0 -1 -1 -1
8 10 8 8 8 8 7 8 7 8 7 7 6 8 6 7 4 2 1 3 4 4 4 5 5 4 4 3 3 3 2 2 2 1 1 0 0 -0 -0 -1 -1 -1 -1 -2
8 8 5 7 6 6 7 8 8 8 6 3 5 9 4 4 4 4 3 3 5 5 5 5 5 4 4 3 2 2 2 2 1 0 -0 -0 -0 -1 -1 -1 -1 -2 -2 -2
8 7 5 7 7 6 5 5 5 5 3 4 6 7 3 2 2 4 4 5 5 6 5 5 4 4 4 3 2 2 1 1 0 -0 -0 -1 -1 -1 -1 -1 -2 -2 -2 -3
11 6 8 12 10 6 5 5 4 7 3 7 9 9 4 3 3 2 4 5 5 5 6 5 4 5 4 3 3 2 1 0 -0 -1 -1 -1 -1 -1 -1 -2 -2 -3 -3 -3
8 7 5 7 7 6 6 5 4 6 9 8 9 7 6 5 3 5 7 5 5 5 5 5 5 5 5 3 2 1 1 -0 -0 -1 -1 -1 -1 -1 -2 -2 -3 -3 -4 -4
4 6 5 4 4 5 5 5 4 6 6 6 6 5 6 7 5 4 6 5 5 6 5 5 5 4 4 4 3 1 1 0 -1 -1 -1 -1 -1 -2 -2 -3 -3 -4 -4 -4
3 3 5 7 1 3 5 4 4 4 3 7 5 8 1 3 3 5 5 6 6 5 5 5 5 4 4 4 3 1 1 -0 -1 -1 -1 -1 -2 -3 -3 -3 -4 -4 -4 -4
2 3 4 -0 1 5 3 -0 3 4 3 1 0 -2 1 3 6 6 6 5 5 5 4 4 4 4 3 2 2 1 0 -0 -1 -1 -1 -2 -3 -3 -4 -4 -4 -4 -4 -5
1 3 1 2 2 3 2 0 1 3 3 -0 2 1 1 1 2 3 4 4 4 4 4 3 3 2 1 1 1 0 -0 -0 -1 -1 -2 -2 -3 -4 -4 -4 -4 -4 -5 -5
-0 1 4 -0 3 4 3 1 1 3 2 -3 1 -1 -3 -0 -3 -2 3 3 3 3 3 2 2 1 1 0 -0 -0 -0 -1 -1 -1 -2 -3 -3 -4 -5 -5 -5 -5 -6 -6
-0 -0 4 1 2 1 -1 -2 2 3 4 1 2 0 -1 -2 2 3 3 3 2 2 2 1 1 1 0 -0 -0 -1 -1 -1 -2 -2 -2 -3 -3 -4 -5 -5 -5 -6 -6 -7
1 1 1 0 1 3 -1 -1 2 2 1 4 3 4 3 4 3 3 2 2 2 2 2 1 1 0 -0 -0 -1 -1 -1 -1 -2 -2 -3 -3 -4 -5 -6 -6 -6 -6 -7 -7
2 1 1 2 2 -2 -0 1 3 4 5 3 4 4 4 4 3 2 1 1 1 1 1 1 0 0 -0 -1 -1 -1 -1 -2 -2 -3 -3 -4 -5 -6 -6 -6 -7 -7 -8 -8
-2 -2 -1 -1 -2 -2 -0 2 2 3 4 3 3 3 3 2 2 1 0 0 0 0 0 0 -0 -0 -0 -1 -1 -1 -2 -2 -3 -3 -4 -6 -6 -7 -7 -7 -8 -8 -9 -9
-1 -2 -4 -3 -2 -1 -0 1 2 3 3 2 2 1 1 1 1 0 -0 -1 -1 -1 -0 -0 -1 -1 -1 -1 -2 -2 -2 -3 -3 -4 -5 -7 -7 -8 -8 -8 -9 -9 -10 -10
-3 -3 -1 -2 0 2 2 3 3 2 2 2 1 1 1 0 0 -1 -1 -1 -1 -1 -1 -1 -1 -1 -1 -2 -2 -2 -3 -3 -4 -5 -7 -8 -8 -9 -9 -9 -10 -11 -11 -11
Height
1541 1547 1548 1542 1543 1545 1551 1555 1554 1550 1547 1548 1549 1549 1542 1547 1548 1549 1551 1553 1554 1554 1554 1554 1553 1552 1552 1551 1550 1551 1553 1553 1553 1553 1552 1553 1554 1557 1560 1562 1564 1564 1565 1564
1545 1546 1535 1538 1544 1546 1550 1553 1555 1550 1548 1550 1549 1549 1543 1545 1546 1546 1548 1550 1551 1554 1556 1557 1557 1556 1555 1556 1556 1555 1554 1557 1557 1558 1557 1557 1558 1558 1560 1561 1562 1563 1563 1562
1540 1532 1530 1537 1544 1548 1550 1551 1552 1549 1549 1550 1550 1547 1543 1546 1547 1547 1549 1550 1553 1553 1553 1554 1555 1555 1557 1557 1561 1560 1559 1560 1560 1559 1559 1560 1560 1561 1562 1562 1563 1563 1563 1563
1536 1530 1532 1536 1538 1541 1549 1542 1544 1547 1552 1557 1550 1554 1539 1543 1546 1547 1548 1550 1552 1552 1553 1554 1556 1556 1555 1554 1553 1557 1559 1560 1561 1563 1562 1561 1560 1559 1560 1561 1563 1563 1562 1562
1527 1529 1532 1533 1531 1535 1538 1539 1544 1546 1551 1553 1553 1557 1538 1541 1539 1542 1547 1550 1553 1553 1556 1557 1559 1561 1560 1559 1558 1561 1562 1562 1562 1563 1564 1562 1560 1560 1561 1563 1563 1564 1563 1563
1524 1523 1525 1524 1527 1530 1536 1541 1548 1555 1557 1563 1543 1544 1538 1534 1524 1533 1535 1537 1545 1550 1551 1553 1557 1559 1561 1561 1558 1559 1562 1563 1563 1562 1561 1561 1560 1561 1562 1562 1563 1563 1564 1563
1523 1522 1519 1521 1529 1532 1533 1539 1554 1559 1562 1547 1546 1547 1526 1520 1524 1527 1531 1536 1541 1545 1544 1548 1550 1553 1554 1562 1561 1559 1561 1560 1562 1564 1563 1563 1564 1563 1563 1562 1563 1563 1562 1562
1525 1523 1516 1514 1515 1523 1532 1530 1542 1549 1553 1543 1548 1538 1516 1518 1521 1523 1525 1530 1537 1541 1545 1548 1551 1553 1554 1557 1560 1558 1558 1559 1562 1563 1564 1562 1562 1562 1563 1562 1561 1561 1561 1560
1516 1514 1507 1508 1509 1512 1527 1530 1525 1545 1582 1558 1530 1522 1514 1521 1521 1522 1524 1527 1530 1533 1539 1546 1549 1552 1552 1553 1557 1557 1557 1557 1558 1561 1561 1560 1559 1560 1560 1561 1559 1559 1560 1559
1494 1505 1507 1508 1508 1512 1512 1514 1528 1538 1542 1548 1526 1521 1507 1515 1515 1522 1522 1522 1527 1530 1534 1538 1544 1548 1549 1551 1553 1552 1553 1554 1556 1558 1559 1558 1558 1558 1557 1556 1557 1557 1557 1556
1489 1493 1509 1508 1506 1502 1512 1514 1519 1518 1524 1528 1537 1512 1499 1499 1504 1510 1512 1514 1518 1522 1527 1532 1537 1541 1545 1548 1549 1550 1551 1552 1552 1553 1554 1554 1555 1555 1554 1554 1554 1554 1555 1553
1482 1489 1508 1501 1498 1498 1497 1498 1499 1508 1523 1532 1527 1497 1497 1497 1497 1499 1501 1506 1513 1520 1523 1527 1531 1535 1538 1544 1545 1545 1546 1548 1549 1549 1550 1551 1552 1553 1552 1552 1552 1551 1550 1549
1475 1488 1507 1499 1498 1499 1497 1495 1496 1502 1514 1522 1519 1499 1500 1499 1498 1498 1498 1501 1506 1512 1518 1520 1526 1529 1533 1537 1540 1541 1542 1543 1545 1546 1546 1546 1547 1548 1548 1548 1547 1547 1546 1545
1459 1474 1469 1458 1466 1476 1491 1489 1491 1487 1512 1499 1486 1486 1500 1498 1497 1497 1497 1498 1501 1506 1513 1515 1520 1522 1528 1531 1533 1535 1537 1538 1540 1541 1541 1542 1543 1543 1543 1543 1543 1543 1542 1541
1454 1462 1470 1464 1463 1466 1469 1476 1484 1481 1475 1482 1474 1484 1485 1487 1488 1488 1490 1493 1497 1499 1508 1512 1517 1518 1522 1524 1526 1529 1532 1533 1535 1536 1537 1538 1538 1538 1539 1538 1538 1538 1537 1535
1457 1458 1465 1471 1470 1467 1469 1466 1472 1473 1475 1475 1477 1479 1476 1477 1481 1485 1487 1489 1492 1495 1503 1507 1511 1513 1515 1517 1518 1522 1525 1528 1529 1531 1531 1531 1532 1532 1533 1533 1532 1532 1530 1528
1454 1459 1461 1450 1479 1476 1468 1457 1466 1466 1470 1465 1474 1460 1473 1477 1477 1479 1483 1484 1486 1493 1499 1503 1505 1507 1509 1509 1511 1515 1520 1523 1523 1525 1525 1525 1525 1526 1526 1526 1526 1525 1523 1522
1446 1453 1457 1481 1479 1458 1452 1458 1455 1457 1460 1465 1466 1468 1466 1469 1473 1476 1477 1480 1485 1490 1495 1499 1501 1503 1503 1503 1506 1511 1515 1517 1517 1518 1518 1519 1519 1520 1519 1519 1519 1518 1517 1515
1440 1444 1463 1463 1466 1455 1451 1456 1456 1457 1456 1457 1459 1461 1465 1468 1471 1474 1474 1478 1483 1487 1491 1493 1496 1497 1496 1497 1501 1504 1508 1510 1510 1511 1512 1512 1512 1513 1513 1512 1512 1511 1510 1508
1444 1442 1439 1465 1456 1447 1439 1443 1444 1447 1458 1446 1450 1454 1461 1467 1478 1469 1469 1475 1479 1482 1485 1488 1489 1490 1491 1493 1497 1500 1502 1502 1503 1504 1505 1505 1505 1506 1506 1505 1505 1504 1502 1499
1445 1447 1435 1449 1448 1446 1440 1441 1444 1455 1446 1441 1445 1451 1457 1463 1462 1465 1469 1472 1475 1478 1481 1483 1485 1486 1487 1488 1491 1492 1494 1494 1496 1496 1497 1498 1498 1498 1498 1498 1498 1496 1494 1492
1426 1435 1441 1447 1449 1439 1433 1443 1444 1437 1438 1440 1444 1448 1451 1456 1460 1464 1466 1469 1471 1474 1476 1477 1480 1482 1483 1484 1485 1486 1486 1487 1488 1488 1489 1490 1491 1491 1491 1491 1490 1488 1486 1483
1427 1423 1426 1427 1425 1426 1428 1429 1431 1432 1434 1440 1444 1447 1451 1454 1457 1459 1463 1466 1467 1468 1470 1471 1474 1476 1476 1477 1477 1478 1479 1479 1480 1480 1481 1482 1483 1483 1483 1482 1481 1479 1478 1475
1423 1421 1425 1426 1427 1425 1426 1428 1431 1433 1435 1438 1442 1445 1447 1449 1452 1455 1458 1461 1462 1461 1462 1465 1467 1468 1469 1470 1470 1470 1471 1471 1471 1472 1472 1473 1474 1475 1474 1473 1472 1471 1470 1468
1411 1417 1424 1428 1426 1427 1425 1425 1428 1431 1433 1436 1438 1441 1443 1445 1446 1449 1450 1454 1455 1454 1455 1458 1460 1461 1461 1462 1462 1462 1462 1462 1463 1463 1464 1465 1465 1466 1465 1465 1464 1462 1462 1459
1405 1411 1415 1418 1413 1414 1417 1420 1423 1427 1428 1430 1434 1436 1437 1439 1441 1444 1443 1446 1447 1447 1449 1449 1451 1452 1452 1452 1453 1453 1453 1454 1455 1455 1456 1457 1457 1457 1456 1456 1455 1455 1453 1451
Wind_Speed
3 3 8 12 9 3 5 4 6 2 3 3 6 6 7 4 6 8 8 9 9 11 14 15 16 17 17 17 17 15 14 16 15 13 13 13 13 13 9 6 2 1 3 6
4 7 8 5 5 4 4 4 6 5 3 2 5 9 7 1 4 8 13 13 14 16 17 19 21 23 25 26 26 26 25 22 21 20 20 19 17 15 12 9 7 6 5 4
8 3 10 7 5 6 5 7 5 6 1 2 2 7 4 1 2 7 11 13 15 18 20 21 23 25 26 27 25 25 25 23 22 21 20 19 18 17 14 13 11 11 10 9
6 2 6 4 6 7 6 8 7 5 4 4 1 4 4 3 3 6 14 17 18 19 20 21 22 22 23 24 23 20 19 19 19 17 14 13 13 12 14 13 12 11 11 11
7 7 5 5 7 7 5 6 7 4 4 2 3 0 7 3 6 8 14 17 18 18 18 19 19 18 19 20 19 17 16 15 15 12 10 11 14 17 15 13 11 12 12 12
4 1 6 8 2 5 9 6 6 4 3 2 8 8 4 5 6 4 19 27 25 23 22 21 19 17 16 15 15 13 11 12 11 10 12 12 14 13 10 9 8 9 9 10
1 5 3 5 6 3 1 6 1 2 1 5 3 3 7 3 2 2 19 27 27 26 26 25 22 19 17 12 10 9 8 8 7 5 6 6 6 5 4 4 5 5 7 8
7 5 11 7 7 8 8 6 5 7 4 3 2 6 6 2 2 4 13 30 30 29 26 24 20 17 15 12 10 8 6 4 4 4 5 5 5 4 3 4 5 6 8 10
7 6 0 3 4 7 6 6 4 6 2 3 4 4 3 1 1 3 17 29 34 32 30 27 22 18 15 12 10 7 5 5 6 6 5 4 4 3 3 4 5 7 8 10
7 3 2 3 4 2 5 7 3 2 2 4 3 4 5 6 8 6 12 27 34 33 31 28 25 20 16 14 12 9 9 8 8 7 6 3 1 1 2 4 6 8 10 10
6 4 1 4 7 10 4 3 2 4 4 5 2 5 6 9 9 14 20 33 38 37 34 31 27 23 19 17 15 13 12 12 11 10 8 5 3 1 3 6 9 11 14 15
9 5 5 8 1 1 2 7 7 4 5 2 1 6 1 4 10 21 25 32 35 34 33 30 28 26 25 22 20 16 15 16 15 13 11 7 4 3 6 9 12 14 16 18
10 4 2 4 2 2 6 5 4 5 3 8 4 5 0 4 6 17 23 31 35 33 31 30 28 28 28 27 24 19 19 18 18 16 13 10 8 7 8 11 14 16 19 21
22 6 9 16 6 6 7 7 7 8 4 6 13 9 6 6 8 13 22 27 30 30 30 29 29 29 28 28 27 23 21 21 21 19 16 14 12 11 12 13 15 18 20 22
7 8 5 4 5 6 6 9 13 15 16 10 12 13 8 13 12 23 28 23 26 29 29 28 26 25 26 28 28 26 24 24 23 22 20 18 17 16 16 15 16 18 21 24
2 3 6 5 1 1 4 10 12 14 10 11 5 10 6 16 11 12 17 22 23 29 26 23 22 22 23 25 28 28 27 25 26 24 22 23 23 21 19 19 19 21 24 27
7 6 5 10 3 4 7 12 14 6 5 11 11 17 6 5 9 16 18 22 26 22 20 20 18 18 20 22 24 26 24 24 26 26 27 28 27 25 23 22 21 23 27 30
7 6 2 3 2 8 2 4 1 11 6 4 2 4 10 10 19 15 16 18 19 16 16 16 17 20 20 18 18 19 22 25 26 28 31 31 29 28 26 24 24 26 30 31
1 6 4 5 4 6 3 5 8 9 9 10 12 6 9 9 7 7 12 11 11 12 12 15 18 17 15 15 15 18 20 23 27 29 31 30 30 29 27 26 25 28 30 30
1 2 5 3 5 9 3 2 6 5 5 8 16 7 11 14 2 4 12 13 10 12 14 17 18 17 17 15 13 15 20 22 24 25 24 26 29 29 28 26 26 28 30 32
4 1 9 5 4 5 5 5 12 5 5 9 17 11 22 5 8 9 9 8 7 9 12 16 18 18 18 15 14 17 19 21 21 23 25 27 29 29 28 27 26 29 31 32
7 8 4 3 3 7 12 6 9 5 7 14 13 14 17 14 11 9 6 8 11 14 16 18 20 22 21 16 19 20 22 20 21 24 27 29 30 29 29 28 28 30 32 33
2 4 5 8 5 1 27 3 11 15 19 13 13 15 16 18 18 12 8 9 11 16 19 21 25 21 22 22 22 23 25 25 24 25 29 30 29 29 29 29 29 30 32 32
4 3 2 3 3 3 23 6 16 14 15 11 10 12 18 20 17 15 11 11 13 15 19 21 26 27 26 27 27 28 27 28 27 27 29 30 29 28 29 29 29 31 30 29
3 8 6 1 1 2 11 25 17 18 13 13 13 12 15 17 18 19 19 16 15 16 18 21 22 26 30 29 29 27 28 28 28 29 29 29 28 27 27 28 29 29 28 29
8 6 4 4 15 11 11 26 24 22 22 17 13 13 14 15 18 16 20 20 18 17 17 19 22 25 28 26 25 25 26 26 28 29 28 27 27 28 28 29 28 27 28 27
Wind_Direction
130 120 208 197 196 124 138 170 216 226 257 174 226 254 262 153 144 158 155 137 121 109 102 101 102 100 100 102 106 106 102 96 96 101 109 114 113 109 117 102 77 318 300 297
57 227 210 129 151 157 139 166 242 292 222 135 275 260 261 135 175 191 172 158 146 126 117 110 107 107 104 100 98 98 95 94 93 90 89 90 94 97 91 83 77 70 62 47
170 215 153 144 155 169 198 198 190 215 37 214 354 278 230 58 105 152 166 160 150 141 136 129 123 115 107 101 95 92 89 86 83 82 83 85 87 91 94 86 79 67 57 49
232 236 160 171 194 153 206 194 176 174 126 234 139 275 289 186 167 179 173 170 164 156 147 138 131 125 118 109 105 96 88 86 86 88 91 89 86 74 79 70 64 60 53 47
233 171 176 185 206 162 229 138 164 141 158 113 230 288 263 154 228 196 191 182 175 165 155 145 137 126 116 111 106 94 86 87 94 96 90 81 74 76 77 69 56 45 39 34
240 205 169 197 119 165 149 81 56 56 108 255 215 183 257 205 212 158 184 187 184 174 166 157 149 139 130 125 113 100 87 79 79 73 64 54 54 55 55 49 34 29 23 22
184 214 192 157 92 54 125 117 50 330 277 228 49 144 247 236 181 183 190 188 184 180 175 169 164 156 147 138 127 115 97 76 69 69 79 81 75 81 73 63 46 37 24 14
169 266 169 188 180 173 190 169 169 207 199 232 47 220 243 153 174 224 196 189 185 185 182 179 173 167 160 160 157 140 131 127 124 144 145 129 120 106 79 63 38 18 11 8
169 269 151 151 150 144 186 203 166 108 42 65 218 275 270 146 196 161 179 187 189 188 187 188 184 181 178 175 178 179 190 188 172 171 163 149 130 106 59 32 17 1 354 349
195 156 221 168 116 41 179 156 99 4 210 260 264 257 228 205 202 180 185 191 194 193 193 192 195 195 192 196 199 207 212 205 198 197 189 180 161 100 24 12 358 354 347 340
152 155 189 127 211 178 150 181 78 135 160 185 229 245 212 192 180 193 201 199 197 195 195 198 201 203 209 212 215 218 219 219 214 212 208 210 221 294 351 350 344 339 335 333
200 140 166 201 293 344 224 189 163 169 213 256 173 244 114 233 201 194 201 199 199 200 200 203 207 211 216 222 224 223 224 225 220 219 219 224 243 288 328 332 331 329 328 328
177 196 90 341 353 342 216 196 138 102 73 197 176 253 181 243 215 213 202 197 197 198 203 207 213 218 225 228 229 231 229 226 224 224 225 229 246 274 298 315 324 326 326 326
167 166 198 225 192 142 191 189 180 168 164 193 228 245 205 214 202 208 209 205 199 202 207 210 216 222 230 234 237 237 233 228 226 228 232 240 253 268 287 303 316 321 320 319
163 217 176 208 192 162 183 179 183 204 216 203 236 228 197 200 201 208 209 199 200 205 213 217 223 227 237 240 239 238 235 230 230 234 239 248 256 265 275 289 300 310 317 319
344 211 157 197 247 197 206 214 189 204 219 240 251 257 204 217 201 191 208 198 202 209 213 222 227 244 243 246 246 241 237 233 233 238 247 250 255 261 268 277 289 302 310 315
155 153 158 223 151 123 258 216 195 180 189 197 210 243 155 191 195 200 200 201 209 216 219 237 235 238 244 249 250 241 238 235 238 243 247 251 255 259 263 271 284 297 305 309
149 148 165 130 157 223 265 358 226 209 209 182 96 200 190 204 218 232 230 225 226 230 224 227 241 242 242 240 236 232 234 236 242 249 252 253 255 258 262 272 282 297 303 305
141 143 148 163 207 333 164 194 161 169 246 183 213 210 175 154 144 221 213 207 209 216 235 242 238 233 226 225 225 228 234 243 251 257 259 259 258 258 264 271 283 294 299 302
168 39 181 155 182 205 245 177 158 117 273 215 203 180 150 145 149 240 188 185 214 231 235 234 227 224 220 214 220 252 258 257 262 269 270 261 259 260 263 270 281 292 301 301
134 90 212 182 219 283 213 186 157 140 241 177 199 190 160 184 204 146 172 205 235 242 241 231 229 230 219 228 269 274 258 261 272 270 265 262 261 261 263 271 282 294 298 299
160 155 181 124 196 257 154 121 174 174 141 159 175 187 198 209 183 202 220 243 246 246 241 236 234 236 232 257 274 266 259 267 273 270 263 261 260 261 266 274 283 292 296 297
245 194 179 189 202 107 174 137 178 153 152 160 173 191 200 202 209 216 233 253 255 254 251 241 234 244 242 265 268 266 265 264 271 269 260 258 260 263 269 275 284 292 293 293
238 167 179 108 204 202 194 180 178 162 160 180 203 215 212 214 220 228 253 273 264 261 258 247 240 242 255 265 270 268 266 261 264 265 260 258 260 266 272 278 286 291 290 288
179 136 146 56 358 208 224 214 192 200 209 214 214 224 227 239 242 253 266 271 274 272 262 249 252 259 261 270 269 265 266 262 266 264 262 261 264 269 274 280 287 288 286 288
179 153 169 200 193 181 203 212 213 218 231 230 223 231 241 243 252 258 267 275 277 266 260 251 257 267 268 264 260 261 262 263 266 265 264 266 269 272 278 284 284 282 284 285